TimeEDT,TemperatureF,Dew PointF,Humidity,Sea Level PressureIn,VisibilityMPH,Wind Direction,Wind SpeedMPH,Gust SpeedMPH,PrecipitationIn,Events,Conditions,WindDirDegrees,DateUTC
12:51 AM,35.6,35.6,100,-9999,0.0,WNW,52.9,62.1,N/A,Fog,Fog,290,2013-05-16 04:51:00
1:50 AM,35.6,35.6,100,-9999,0.0,WNW,43.7,49.5,N/A,Fog,Fog,290,2013-05-16 05:50:00
2:50 AM,35.6,35.6,100,-9999,0.0,WNW,43.7,49.5,N/A,Fog,Fog,290,2013-05-16 06:50:00
3:51 AM,35.6,35.6,100,-9999,0.0,WNW,41.4,-,N/A,Fog,Fog,290,2013-05-16 07:51:00
4:52 AM,35.6,35.6,100,-9999,0.0,WNW,42.6,-,N/A,Fog,Fog,290,2013-05-16 08:52:00
5:53 AM,35.6,35.6,100,-9999,0.0,WNW,47.2,-,N/A,Fog,Fog,290,2013-05-16 09:53:00
6:50 AM,32.0,32.0,100,-9999,0.0,WNW,49.5,-,N/A,Fog,Fog,290,2013-05-16 10:50:00
7:51 AM,32.0,32.0,100,-9999,0.0,WNW,46.0,-,N/A,Fog,Fog,290,2013-05-16 11:51:00
8:49 AM,33.8,33.8,100,-9999,0.0,WNW,41.4,47.2,N/A,Fog,Fog,300,2013-05-16 12:49:00
9:48 AM,33.8,33.8,100,-9999,0.1,West,41.4,47.2,N/A,Fog,Fog,280,2013-05-16 13:48:00
10:52 AM,37.4,33.8,87,-9999,80.0,West,47.2,56.4,N/A,,Mostly Cloudy,280,2013-05-16 14:52:00
11:52 AM,37.4,32.0,81,-9999,80.0,West,49.5,59.8,N/A,,Mostly Cloudy,280,2013-05-16 15:52:00
12:52 PM,41.0,24.8,53,-9999,80.0,West,62.1,67.9,N/A,,Mostly Cloudy,270,2013-05-16 16:52:00
1:52 PM,41.0,26.6,57,-9999,80.0,West,59.8,71.3,N/A,,Mostly Cloudy,280,2013-05-16 17:52:00
2:49 PM,42.8,24.8,49,-9999,70.0,West,70.2,85.2,N/A,,Mostly Cloudy,280,2013-05-16 18:49:00
3:52 PM,42.8,24.8,49,-9999,70.0,West,58.7,67.9,N/A,,Mostly Cloudy,280,2013-05-16 19:52:00
4:51 PM,41.0,28.4,61,-9999,80.0,WNW,38.0,49.5,N/A,,Mostly Cloudy,300,2013-05-16 20:51:00
5:52 PM,37.4,32.0,81,-9999,70.0,WNW,40.3,48.3,N/A,,Mostly Cloudy,300,2013-05-16 21:52:00
6:54 PM,33.8,33.8,100,-9999,0.1,WNW,46.0,52.9,N/A,Fog,Fog,300,2013-05-16 22:54:00
7:51 PM,32.0,32.0,100,-9999,0.0,WNW,50.6,56.4,N/A,Fog,Light Freezing Fog,300,2013-05-16 23:51:00
8:49 PM,30.2,30.2,100,-9999,0.0,WNW,51.8,63.3,N/A,Fog,Light Freezing Fog,290,2013-05-17 00:49:00
9:50 PM,30.2,30.2,100,-9999,0.0,WNW,55.2,67.9,N/A,Fog,Light Freezing Fog,300,2013-05-17 01:50:00
10:50 PM,28.4,28.4,100,-9999,0.0,NW,57.5,63.3,N/A,Fog,Light Freezing Fog,310,2013-05-17 02:50:00
11:51 PM,28.4,28.4,100,-9999,0.0,NW,52.9,59.8,N/A,Fog,Light Freezing Fog,310,2013-05-17 03:51:00